Showing default

INTELSAT 33E, 41748

Orbit data source: Space-Track

INTELSAT 33E, 41748 is a payload satellite owned by Intelsat SA (US) (US) in GEO that was launched on Wed, 24 Aug 2016 UTC via an ARIANE 5ECA launch vehicle from the French Guiana (FRGUI). Payload-class satellites include a variety of spacecraft equipped with specific instruments for various scientific and technological missions. These include communications satellites like Starlink; space stations such as the ISS; scientific satellites like the Hubble; Earth observation satellites from companies like Planet Labs, Umbra, and HawkEye 360; GPS; miniature CubeSats for education and research; and military/defense satellites.

Not visible in the next 10 days
Identifier
41748, 2016-053B
Orbit
GEO
Country
Flag of USUS / ITSO
Related business
Manufacturer
Boeing/ES
Mission
Non-operational Commercial Communications
Bus & Motor
BSS-702MP, LEROS-2B
Mass
6,552 kg wet, ~2,946 kg dry
Launch date (UTC)
2016-08-24 (10 years ago)
Launch vehicle
ARIANE 5ECA
Launch site
French Guiana (FRGUI)
Object type
Payload
Rocket body
Debris
Shape & HBR
Box + 2 Pan, 22.0 m
Radar Cross Section
59.953 m², Large (>1 m²)

Expand to show TLE details & history
Last TLE update: 9 hours ago

TLE from 9 hours ago
0 INTELSAT 33E
1 41748U 16053B   26255.85698440  .00000126  00000-0  00000-0 0  9992
2 41748   1.7963  82.9043 0023735 190.6590  52.0143  1.00222118 37123
Epoch: 2026-09-12T20:34Z
TLE epoch observation values (Epoch: 2026-09-12T20:34:03.452Z)
Latitude
-1.59003°
Longitude
25.40115°
Altitude
35,738.882 km
Speed
3.079 km/s
True Right ascension
21h 43m 06s
True Declination
-1° 35' 18"
Sunlit
Object was in daylight at epoch
Visualization orbit readout
Latitude
Unknown
Longitude
Unknown
Altitude
Unknown
Speed
Unknown
Apparent Right ascension
Unknown
Apparent Declination
Unknown
Sunlit
N/A
Visualization observer readout
Local Sidereal Time
21:53:24
Azimuth
Unknown
Elevation
Unknown
Doppler factor
Unknown
Orbital elements
Apogee altitude
35,901.706 km
Perigee altitude
35,701.479 km
Semi-major axis
42,179.73 km
Eccentricity
0.00237
Inclination
1.7963°
RAAN
82.9043°
Arg. of periapsis
190.659°
True anomaly
52.22906°
Mean anomaly
52.0143°
Eccentric anomaly
52.12164°
Mean motion
0.25055 °/min
Orbital period
1,436.86 mins
BSTAR
0
Loading maneuver chart data...
Computing Atmospheric mass density...
Loading historical data...
Loading historical data...
Loading historical data...
Loading historical data...
Loading historical data...
Loading historical data...
Loading historical data...

Documentation

Showing up to 5 results
|